Time,TemperatureF,DewpointF,PressureIn,WindDirection,WindDirectionDegrees,WindSpeedMPH,WindSpeedGustMPH,Humidity,HourlyPrecipIn,Conditions,Clouds,dailyrainin,SoftwareType,DateUTC
2013-08-26 00:22:00,53.0,-99.9,-100.00,North,-999,-999.0,-999.0,-999,0.00,,,0.03,,2013-08-26 06:22:00,
2013-08-26 00:32:00,53.0,-99.9,-100.00,North,-999,-999.0,-999.0,-999,0.00,,,0.03,,2013-08-26 06:32:00,
2013-08-26 00:42:00,53.0,-99.9,-100.00,North,-999,-999.0,-999.0,-999,0.00,,,0.03,,2013-08-26 06:42:00,
2013-08-26 01:22:00,51.0,-99.9,-100.00,North,-999,-999.0,-999.0,-999,0.00,,,0.03,,2013-08-26 07:22:00,
2013-08-26 01:32:00,51.0,-99.9,-100.00,North,-999,-999.0,-999.0,-999,0.00,,,0.03,,2013-08-26 07:32:00,
2013-08-26 01:42:00,51.0,-99.9,-100.00,North,-999,-999.0,-999.0,-999,0.00,,,0.03,,2013-08-26 07:42:00,
2013-08-26 02:22:00,52.0,-99.9,-100.00,North,-999,-999.0,-999.0,-999,0.00,,,0.03,,2013-08-26 08:22:00,
2013-08-26 02:32:00,52.0,-99.9,-100.00,North,-999,-999.0,-999.0,-999,0.00,,,0.03,,2013-08-26 08:32:00,
2013-08-26 02:42:00,52.0,-99.9,-100.00,North,-999,-999.0,-999.0,-999,0.00,,,0.03,,2013-08-26 08:42:00,
2013-08-26 03:22:00,52.0,-99.9,-100.00,North,-999,-999.0,-999.0,-999,0.00,,,0.03,,2013-08-26 09:22:00,
2013-08-26 03:33:00,52.0,-99.9,-100.00,North,-999,-999.0,-999.0,-999,0.00,,,0.03,,2013-08-26 09:33:00,
2013-08-26 03:44:00,52.0,-99.9,-100.00,North,-999,-999.0,-999.0,-999,0.00,,,0.03,,2013-08-26 09:44:00,
2013-08-26 04:23:00,52.0,-99.9,-100.00,North,-999,-999.0,-999.0,-999,0.00,,,0.03,,2013-08-26 10:23:00,
2013-08-26 04:32:00,52.0,-99.9,-100.00,North,-999,-999.0,-999.0,-999,0.00,,,0.03,,2013-08-26 10:32:00,
2013-08-26 04:42:00,52.0,-99.9,-100.00,North,-999,-999.0,-999.0,-999,0.00,,,0.03,,2013-08-26 10:42:00,
2013-08-26 05:22:00,52.0,-99.9,-100.00,North,-999,-999.0,-999.0,-999,0.00,,,0.01,,2013-08-26 11:22:00,
2013-08-26 05:33:00,52.0,-99.9,-100.00,North,-999,-999.0,-999.0,-999,0.00,,,0.01,,2013-08-26 11:33:00,
2013-08-26 05:42:00,52.0,-99.9,-100.00,North,-999,-999.0,-999.0,-999,0.00,,,0.01,,2013-08-26 11:42:00,
2013-08-26 06:22:00,49.0,-99.9,-100.00,North,-999,-999.0,-999.0,-999,0.00,,,0.02,,2013-08-26 12:22:00,
2013-08-26 06:32:00,49.0,-99.9,-100.00,North,-999,-999.0,-999.0,-999,0.00,,,0.02,,2013-08-26 12:32:00,
2013-08-26 06:42:00,49.0,-99.9,-100.00,North,-999,-999.0,-999.0,-999,0.00,,,0.02,,2013-08-26 12:42:00,
2013-08-26 07:22:00,50.0,-99.9,-100.00,North,-999,-999.0,-999.0,-999,0.02,,,0.04,,2013-08-26 13:22:00,
2013-08-26 07:32:00,50.0,-99.9,-100.00,North,-999,-999.0,-999.0,-999,0.02,,,0.04,,2013-08-26 13:32:00,
2013-08-26 07:42:00,50.0,-99.9,-100.00,North,-999,-999.0,-999.0,-999,0.02,,,0.04,,2013-08-26 13:42:00,
2013-08-26 08:22:00,49.0,-99.9,-100.00,North,-999,-999.0,-999.0,-999,0.00,,,0.04,,2013-08-26 14:22:00,
2013-08-26 08:32:00,49.0,-99.9,-100.00,North,-999,-999.0,-999.0,-999,0.00,,,0.04,,2013-08-26 14:32:00,
2013-08-26 08:42:00,49.0,-99.9,-100.00,North,-999,-999.0,-999.0,-999,0.00,,,0.04,,2013-08-26 14:42:00,
2013-08-26 08:45:00,50.0,-99.9,-100.00,North,-999,-999.0,-999.0,-999,0.00,,,0.04,,2013-08-26 14:45:00,
2013-08-26 09:22:00,50.0,-99.9,-100.00,North,-999,-999.0,-999.0,-999,0.00,,,0.04,,2013-08-26 15:22:00,
2013-08-26 09:35:00,50.0,-99.9,-100.00,North,-999,-999.0,-999.0,-999,0.00,,,0.04,,2013-08-26 15:35:00,
2013-08-26 09:45:00,57.0,-99.9,-100.00,North,-999,-999.0,-999.0,-999,0.00,,,-99.99,,2013-08-26 15:45:00,
2013-08-26 10:29:00,57.0,-99.9,-100.00,North,-999,-999.0,-999.0,-999,0.00,,,-99.99,,2013-08-26 16:29:00,
2013-08-26 10:37:00,57.0,-99.9,-100.00,North,-999,-999.0,-999.0,-999,0.00,,,-99.99,,2013-08-26 16:37:00,
2013-08-26 11:24:00,64.0,-99.9,-100.00,North,-999,-999.0,-999.0,-999,0.00,,,0.02,,2013-08-26 17:24:00,
2013-08-26 11:37:00,64.0,-99.9,-100.00,North,-999,-999.0,-999.0,-999,0.00,,,0.02,,2013-08-26 17:37:00,
2013-08-26 11:43:00,64.0,-99.9,-100.00,North,-999,-999.0,-999.0,-999,0.00,,,0.02,,2013-08-26 17:43:00,
2013-08-26 12:22:00,71.0,-99.9,-100.00,North,-999,-999.0,-999.0,-999,0.00,,,0.02,,2013-08-26 18:22:00,
2013-08-26 12:32:00,71.0,-99.9,-100.00,North,-999,-999.0,-999.0,-999,0.00,,,0.02,,2013-08-26 18:32:00,
2013-08-26 12:42:00,71.0,-99.9,-100.00,North,-999,-999.0,-999.0,-999,0.00,,,0.02,,2013-08-26 18:42:00,
2013-08-26 13:42:00,76.0,-99.9,-100.00,North,-999,-999.0,-999.0,-999,0.00,,,0.02,,2013-08-26 19:42:00,
2013-08-26 14:22:00,76.0,-99.9,-100.00,North,-999,-999.0,-999.0,-999,-99.99,,,0.02,,2013-08-26 20:22:00,
2013-08-26 14:32:00,76.0,-99.9,-100.00,North,-999,-999.0,-999.0,-999,-99.99,,,0.02,,2013-08-26 20:32:00,
2013-08-26 14:43:00,76.0,-99.9,-100.00,North,-999,-999.0,-999.0,-999,-99.99,,,0.02,,2013-08-26 20:43:00,
2013-08-26 14:45:00,76.0,-99.9,-100.00,North,-999,-999.0,-999.0,-999,0.00,,,0.02,,2013-08-26 20:45:00,
2013-08-26 15:22:00,76.0,-99.9,-100.00,North,-999,-999.0,-999.0,-999,0.00,,,0.02,,2013-08-26 21:22:00,
2013-08-26 15:35:00,76.0,-99.9,-100.00,North,-999,-999.0,-999.0,-999,0.00,,,0.02,,2013-08-26 21:35:00,
2013-08-26 16:26:00,77.0,-99.9,-100.00,North,-999,-999.0,-999.0,-999,0.00,,,0.02,,2013-08-26 22:26:00,
2013-08-26 16:35:00,77.0,-99.9,-100.00,North,-999,-999.0,-999.0,-999,0.00,,,0.02,,2013-08-26 22:35:00,
2013-08-26 16:43:00,77.0,-99.9,-100.00,North,-999,-999.0,-999.0,-999,0.00,,,0.02,,2013-08-26 22:43:00,
2013-08-26 17:22:00,67.0,-99.9,-100.00,North,-999,-999.0,-999.0,-999,0.00,,,0.02,,2013-08-26 23:22:00,
2013-08-26 17:34:00,67.0,-99.9,-100.00,North,-999,-999.0,-999.0,-999,0.00,,,0.02,,2013-08-26 23:34:00,
2013-08-26 17:42:00,67.0,-99.9,-100.00,North,-999,-999.0,-999.0,-999,0.00,,,0.02,,2013-08-26 23:42:00,
2013-08-26 18:42:00,60.0,-99.9,-100.00,North,-999,-999.0,-999.0,-999,0.02,,,0.04,,2013-08-27 00:42:00,
2013-08-26 20:43:00,55.0,-99.9,-100.00,North,-999,-999.0,-999.0,-999,-99.99,,,0.08,,2013-08-27 02:43:00,
2013-08-26 20:45:00,53.0,-99.9,-100.00,North,-999,-999.0,-999.0,-999,0.00,,,0.08,,2013-08-27 02:45:00,
2013-08-26 21:23:00,53.0,-99.9,-100.00,North,-999,-999.0,-999.0,-999,0.00,,,0.08,,2013-08-27 03:23:00,
2013-08-26 21:36:00,53.0,-99.9,-100.00,North,-999,-999.0,-999.0,-999,0.00,,,0.08,,2013-08-27 03:36:00,
2013-08-26 21:45:00,51.0,-99.9,-100.00,North,-999,-999.0,-999.0,-999,0.02,,,0.09,,2013-08-27 03:45:00,
2013-08-26 22:29:00,51.0,-99.9,-100.00,North,-999,-999.0,-999.0,-999,0.02,,,0.09,,2013-08-27 04:29:00,
2013-08-26 22:38:00,51.0,-99.9,-100.00,North,-999,-999.0,-999.0,-999,0.02,,,0.09,,2013-08-27 04:38:00,
2013-08-26 23:23:00,50.0,-99.9,-100.00,North,-999,-999.0,-999.0,-999,0.00,,,0.08,,2013-08-27 05:23:00,
2013-08-26 23:35:00,50.0,-99.9,-100.00,North,-999,-999.0,-999.0,-999,0.00,,,0.08,,2013-08-27 05:35:00,
2013-08-26 23:43:00,50.0,-99.9,-100.00,North,-999,-999.0,-999.0,-999,0.00,,,0.08,,2013-08-27 05:43:00,